TITAN 3C TRANSTAGE R/B, 8751

Orbit data source: Space-Track

TITAN 3C TRANSTAGE R/B, 8751 is space debris in GEO originally from a launch on Mon, 15 Mar 1976 UTC launched from the Air Force Eastern Test Range (AFETR). Debris objects in space refer to the collection of defunct objects orbiting the Earth. Examples of debris include non-operational satellites, rocket bodies, and fragments generated from explosions, collisions, or faulty payload assembly.

Loading next visibility...
Identifier
8751, 1976-023F
Orbit
GEO
Country
Flag of USUS
Related business
Manufacturer
Martin Marietta
Mission
Spacecraft
Bus & Motor
TRANSTAGE, Unknown motor
Mass
~1,950 kg wet, ~1,950 kg dry
Launch date (UTC)
1976-03-15 (50 years ago)
Launch vehicle
Unknown
Launch site
Air Force Eastern Test Range (AFETR)
Object type
Payload
Rocket body
Debris
Shape & HBR
Unknown
Radar Cross Section
Large (>1 m²)

Expand to show TLE details & history
Last TLE update: 1 day ago

TLE from 1 day ago
0 TITAN 3C TRANSTAGE R/B
1 08751U 76023F   25305.17102988 -.00000199  00000-0  00000-0 0  9990
2 08751  21.3966  45.5910 0122006 100.3892 260.3782  0.98325906180962
Epoch: 2025-11-01T04:06Z
TLE epoch observation values (Epoch: 2025-11-01T04:06:16.981Z)
Latitude
-0.21536°
Longitude
-57.27741°
Altitude
36,435.574 km
Speed
3.048 km/s
True Right ascension
02h 59m 59s
True Declination
0° 12' 55"
Sunlit
Object was in daylight at epoch
Visualization orbit readout
Latitude
Unknown
Longitude
Unknown
Altitude
Unknown
Speed
Unknown
Apparent Right ascension
Unknown
Apparent Declination
Unknown
Sunlit
N/A
Visualization observer readout
Local Sidereal Time
03:05:19
Azimuth
Unknown
Elevation
Unknown
Doppler factor
Unknown
Orbital elements
Apogee altitude
36,863.134 km
Perigee altitude
35,820.713 km
Semi-major axis
42,720.061 km
Eccentricity
0.0122
Inclination
21.3966°
RAAN
45.591°
Arg. of periapsis
100.3892°
True anomaly
259.00342°
Mean anomaly
260.3782°
Eccentric anomaly
259.69044°
Mean motion
0.24581 °/min
Orbital period
1,464.56 mins
BSTAR
0
Loading maneuver chart data...
Computing Atmospheric mass density...
Loading historical data...
Loading historical data...
Loading historical data...
Loading historical data...
Loading historical data...
Loading historical data...
Loading historical data...

Documentation

Showing up to 5 results
|